Disclaimer

Please do not use the information listed here in-flight or in-navigation, as they are not provided to us by the airports but are provided by volunteers, so they might be outdated.

Search


Regions


Airport information page

Radio informations:
STOCKHOLM TCA - 134.2 MHz

Airport informations:
Latitude: 59° 53' 50.38" N
Longitude: 017° 35' 18.89" E
Elevation: 68 feet - 21 meters
Operating hours: Remarks
Operating agency: Military
Timezone: UTC+1(+2DT) - Last Sunday in March to last Sunday in October
Fuel: Jet A1, without icing nhibitor.

100/130 MIL Spec, low lead, aviation gasoline (BLUE)

Runway information:
03/21 - 6250 x 131 feet< - >1905 x 40 meters
08/26 - 6594 x 131 feet< - >2010 x 40 meters

Recent METARs:
ESCM 212120Z AUTO 00000KT 9999 OVC045/// M14/M15 Q1017
ESCM 212150Z AUTO 00000KT 9999 OVC045/// M13/M15 Q1016
ESCM 212220Z AUTO 00000KT 9999 OVC045/// M13/M14 Q1016

Airport on the map: